TimeEST,TemperatureF,Dew PointF,Humidity,Sea Level PressureIn,VisibilityMPH,Wind Direction,Wind SpeedMPH,Gust SpeedMPH,PrecipitationIn,Events,Conditions,WindDirDegrees,DateUTC
12:52 AM,33.1,28.9,85,30.06,7.0,SSW,12.7,-,N/A,,Overcast,210,2013-01-06 05:52:00
1:52 AM,34.0,28.0,79,30.04,10.0,SW,10.4,-,N/A,,Overcast,220,2013-01-06 06:52:00
2:52 AM,34.0,27.0,75,30.03,10.0,SW,9.2,-,N/A,,Overcast,220,2013-01-06 07:52:00
3:26 AM,33.8,26.6,75,29.99,10.0,SSW,10.4,-,N/A,,Overcast,210,2013-01-06 08:26:00
3:35 AM,33.8,26.6,75,29.99,10.0,SW,10.4,-,N/A,,Overcast,220,2013-01-06 08:35:00
3:52 AM,34.0,27.0,75,30.01,10.0,SW,12.7,-,N/A,,Overcast,220,2013-01-06 08:52:00
4:52 AM,34.0,27.0,75,29.99,10.0,SW,9.2,-,N/A,,Overcast,220,2013-01-06 09:52:00
5:52 AM,34.0,27.0,75,29.97,8.0,SW,9.2,-,0.00,Snow,Light Snow,220,2013-01-06 10:52:00
6:52 AM,34.0,28.0,79,29.97,9.0,SW,11.5,-,0.00,,Overcast,230,2013-01-06 11:52:00
7:52 AM,34.0,28.0,79,29.96,9.0,SW,10.4,-,N/A,,Overcast,220,2013-01-06 12:52:00
8:52 AM,35.1,28.0,76,29.97,8.0,SW,11.5,-,N/A,,Overcast,230,2013-01-06 13:52:00
9:52 AM,35.1,28.9,78,29.98,8.0,SW,9.2,-,N/A,,Overcast,220,2013-01-06 14:52:00
10:14 AM,35.6,28.4,75,29.96,8.0,SSW,9.2,-,N/A,,Overcast,210,2013-01-06 15:14:00
10:52 AM,35.1,28.9,78,29.99,8.0,SW,10.4,-,N/A,,Overcast,220,2013-01-06 15:52:00
11:52 AM,35.1,28.9,78,29.98,6.0,SW,9.2,-,N/A,,Haze,220,2013-01-06 16:52:00
12:52 PM,34.0,30.0,85,29.97,6.0,WSW,10.4,-,0.00,,Overcast,250,2013-01-06 17:52:00
1:52 PM,34.0,28.0,79,29.98,8.0,West,15.0,-,N/A,,Overcast,260,2013-01-06 18:52:00
2:52 PM,33.1,25.0,72,30.00,9.0,West,13.8,-,N/A,,Overcast,260,2013-01-06 19:52:00
3:52 PM,32.0,25.0,75,30.06,6.0,West,17.3,26.5,N/A,,Haze,270,2013-01-06 20:52:00
4:52 PM,30.0,26.1,85,30.09,4.0,West,15.0,-,N/A,,Overcast,260,2013-01-06 21:52:00
5:40 PM,30.2,24.8,80,30.09,6.0,West,12.7,-,N/A,,Haze,260,2013-01-06 22:40:00
5:52 PM,30.0,24.1,79,30.12,6.0,West,12.7,-,N/A,,Haze,260,2013-01-06 22:52:00
6:28 PM,30.2,24.8,80,30.12,5.0,West,15.0,-,N/A,,Haze,260,2013-01-06 23:28:00
6:52 PM,30.0,24.1,79,30.17,5.0,West,15.0,-,N/A,,Haze,260,2013-01-06 23:52:00
7:52 PM,28.9,24.1,82,30.20,5.0,West,11.5,-,N/A,,Haze,260,2013-01-07 00:52:00
8:12 PM,28.4,24.8,86,30.18,5.0,WSW,13.8,-,N/A,,Haze,250,2013-01-07 01:12:00
8:52 PM,28.9,24.1,82,30.22,5.0,WSW,11.5,-,N/A,,Haze,250,2013-01-07 01:52:00
9:52 PM,28.9,25.0,85,30.25,5.0,West,9.2,-,N/A,,Overcast,260,2013-01-07 02:52:00
10:52 PM,28.9,25.0,85,30.27,4.0,WSW,8.1,-,N/A,,Overcast,250,2013-01-07 03:52:00
11:52 PM,30.0,26.1,85,30.30,5.0,WSW,6.9,-,N/A,,Overcast,250,2013-01-07 04:52:00